AirNav   Duncan Aviation - Near you to keep you flying
 
 777 users online  

53T Cannon Field Airport
Somerset, Texas, USA

GOING TO SOMERSET?


FAA INFORMATION EFFECTIVE 19 MAY 2022

Location

FAA Identifier: 53T
Lat/Long: 29-12-57.8640N 098-32-58.0630W
29-12.964400N 098-32.967717W
29.2160733,-98.5494619
(estimated)
Elevation: 610 ft. / 186 m (estimated)
Variation: 07E (1985)
From city: 6 miles E of SOMERSET, TX
Time zone: UTC -5 (UTC -6 during Standard Time)
Zip code: 78264

Airport Operations

Airport use: Open to the public
Activation date: 09/1983
Control tower: no
ARTCC: HOUSTON CENTER
FSS: SAN ANGELO FLIGHT SERVICE STATION
NOTAMs facility: SJT (NOTAM-D service available)
Attendance: CONTINUOUS
FOR ARPT ATTENDANT CALL 210-842-0429.
Wind indicator: yes
Segmented circle: no

Airport Communications

CTAF/UNICOM: 123.0
WX ASOS at SSF (8 nm NE): PHONE 210-927-9391
WX AWOS-3 at PEZ (16 nm S): 118.575 (830-569-5749)
WX AWOS-3 at CVB (18 nm NW): 119.25 (830-931-0232)
WX ASOS at SAT (20 nm N): PHONE 210-805-5583

Nearby radio navigation aids

VOR radial/distance  VOR name  Freq  Var
SSFr236/(6.1)STINSON VOR108.4009E
RNDr212/22.8RANDOLPH VORTAC112.3005E
SATr182/26.1SAN ANTONIO VORTAC116.8008E

 
NDB name  Hdg/Dist  Freq  Var  ID
DEVINE070/20.935907EHHH .... .... ....

Airport Services

Airframe service: NONE
Powerplant service: NONE

Runway Information

Runway 16/34

Dimensions: 2880 x 100 ft. / 878 x 30 m
ROLLING GRADIENT ENTIRE LEN OF RWY NOT VISIBLE FM ENDS.
Surface: turf, in good condition
Runway edge markings: RWY OUTLINED WITH ROUND WHITE CONCRETE MARKERS.
RUNWAY 16  RUNWAY 34
Traffic pattern: leftright
Displaced threshold: 200 ft.300 ft.
Markings: NSTD
Obstructions: 4 ft. fence, 105 ft. right of centerline
RWY 16 0:1 AT DSPLCD THR DUE TO 4 FT FENCE APPROX 105 FT R OF CNTRLN.
49 ft. tree, 100 ft. left of centerline
RWY 34 0:1 AT DSPLCD THR DUE TO +4 FT FENCE 51 FT R OF CNTRLN.

Airport Ownership and Management from official FAA records

Ownership: Privately-owned
Owner: ALAMO LIAISON GROUP
2352 S LOOP 1604 W
SAN ANTONIO, TX 78264-3719
Phone 210-624-2226
Manager: RICHARD ROBERTS
2352 S LOOP 1604 W
SAN ANTONIO, TX 78264-3719
Phone 210-624-2226

Airport Operational Statistics

Aircraft based on the field: 13
Single engine airplanes: 13
    
Aircraft operations: avg 21/week *
91% local general aviation
9% transient general aviation
* for 12-month period ending 01 February 2017

Additional Remarks

WILDLIFE ON & INVOF ARPT.
+30 FT MKD PWRLINE 500 FT N OF RWY 16 END.
RWYS 16 & 34 DSPLCD THRS MKD WITH WHITE PAINTED BARRELS.
RWY 16/34 SOUTH HALF ROUGH EDGES.
RWY 16 +4 FT FENCE 105 FT R PARALLEL TO RWY; +6-10 FT TREES IN FENCE ROW 105 FT R OF CNTRLN.
RWY 34 +4 FT FENCE 51 FT RIGHT PARALLEL TO RWY.
FOR CD CTC SAN ANTONIO APCH AT 210-805-5516.

Instrument Procedures

There are no published instrument procedures at 53T.

Some nearby airports with instrument procedures:

KSSF - Stinson Municipal Airport (8 nm NE)
KSKF - Kelly Field Airport (10 nm N)
KPEZ - Pleasanton Municipal Airport (16 nm S)
KCVB - Castroville Municipal Airport (18 nm NW)
KSAT - San Antonio International Airport (20 nm N)
 
Loc | Ops | Rwys | IFR | FBO | Links
Com | Nav | Svcs | Stats | Notes
Area around 53T (Cannon Field Airport)
 
Road maps at: MapQuest Bing Google
 
Aerial photo
WARNING: Photo may not be current or correct
Aerial photo of 53T (Cannon Field Airport)
Photo taken 11-Jun-2010

Do you have a better or more recent aerial photo of Cannon Field Airport that you would like to share? If so, please send us your photo.

 
Sectional chart

 
Airport distance calculator
Flying to Cannon Field Airport? Find the distance to fly.

From to 53T

Sunrise and sunset
Times for 19-May-2022
 Local
(UTC-5)
 Zulu
(UTC)
Morning civil twilight06:1511:15
Sunrise06:4111:41
Sunset20:2001:20
Evening civil twilight20:4601:46

Current date and time
Zulu (UTC)  19-May-2022 11:19:21
Local (UTC-5)  19-May-2022 06:19:21
 
METAR
KSSF 
8nm NE 
191053Z AUTO 18007KT 10SM OVC016 24/22 A2980 RMK AO2 SLP074 T02440217 $
KSKF 
9nm N 
190857Z 15006KT 10SM BKN014 BKN200 22/20 A2980 RMK AO2A SLP082 T02170200 57015
KPEZ 
16nm S 
191055Z AUTO 14003KT 10SM BKN015 23/21 A2981 RMK AO2 T02260207
KCVB 
17nm NW 
191057Z AUTO 14004KT 10SM OVC012 23/22 A2983 RMK AO2
KSAT 
20nm N 
191051Z 18012KT 10SM BKN015 BKN250 23/19 A2982 RMK AO2 SLP079 T02280194 $
TAF
KSSF 
8nm NE 
190524Z 1906/2006 14011KT P6SM BKN250 FM190700 15007KT P6SM BKN015 FM191400 16010G20KT P6SM SCT040 FM200000 13012G22KT P6SM FEW250
KSKF 
9nm N 
190620Z 1906/2008 15010KT 9999 SCT011 QNH2984INS BECMG 1907/1908 16009KT 9999 BKN011 QNH2982INS BECMG 1914/1915 17015G20KT 9999 SKC QNH2960INS BECMG 2002/2003 16012KT 9999 SKC QNH2958INS BECMG 2007/2008 17009KT 9999 SCT025 QNH2966INS TX39/1920Z TN22/1912Z
KSAT 
20nm N 
190524Z 1906/2012 16012G22KT P6SM BKN250 FM190700 16012KT P6SM BKN015 FM191400 17012G22KT P6SM SCT040 FM200000 14016G26KT P6SM FEW250 FM200700 16012KT P6SM BKN015
NOTAMs
Click for the latest NOTAMs
NOTAMs are issued by the DoD/FAA and will open in a separate window not controlled by AirNav.

 

 
 

Would you like to see your business listed on this page?

 If your business provides an interesting product or service to pilots, flight crews, aircraft, or users of the Cannon Field Airport, you should consider listing it here.  To start the listing process, click on the button below
 
Add a business
 

Other Pages about Cannon Field Airport

Update a link
 
Copyright © AirNav, LLC. All rights reserved. Privacy Policy  Contact